Weather History for Zaragoza, Spain

Change the Weather History Date:

Thursday, April 11, 2013

  Actual Average Record
Temperature  
Mean Temperature 67 °F -  
Max Temperature 77 °F 69 °F 80 °F (2014)
Min Temperature 55 °F 48 °F 33 °F (1998)
Cooling Degree Days 2    
Growing Degree Days 17 (Base 50)    
Moisture  
Dew Point 46 °F    
Average Humidity 51    
Maximum Humidity 63    
Minimum Humidity 29    
Precipitation  
Precipitation 0.00 in 0.05 in - ()
Sea Level Pressure  
Sea Level Pressure 29.88 in    
Wind  
Wind Speed 12 mph ()    
Max Wind Speed 25 mph    
Max Gust Speed 38 mph    
Visibility 6.9 miles    
Events      
Averages and records for this station are not official NWS values.
T = Trace of Precipitation, MM = Missing Value Source: Averaged Metar Reports

Daily Weather History Graph

Daily Weather History Graph

Search for Another Location

Airport:

Trip Planner

Search our weather history database for the weather conditions in past years. The results will help you decide how hot, cold, wet, or windy it might be!

Date:

Astronomy

Apr. 11, 2013 Rise Set
Actual Time 7:30 AM CEST 8:40 PM CEST
Civil Twilight 7:01 AM CEST 9:09 PM CEST
Nautical Twilight 6:27 AM CEST 9:43 PM CEST
Astronomical Twilight 5:51 AM CEST 10:19 PM CEST
Moon 7:52 AM CEST (4/11) 10:01 PM CEST (4/11)
Length of Visible Light 14h 07m
Length of Day
13h 09m
New Moon, 1% of the Moon is Illuminated
Apr 11
New Moon
Apr 18
First Quarter
Apr 25
Full
May 2
Last Quarter
May 10
New

Hourly Weather History & Observations

Time (CEST) Temp. Dew Point Humidity Pressure Visibility Wind Dir Wind Speed Gust Speed Precip Events Conditions
12:00 AM 64.4 °F 50.0 °F 59% 29.98 in 6.2 mi SSW 11.5 mph - N/A   Partly Cloudy
12:30 AM 64.4 °F 50.0 °F 59% 29.98 in 6.2 mi SW 11.5 mph - N/A   Partly Cloudy
1:00 AM 64.4 °F 50.0 °F 59% 29.98 in 6.2 mi SW 10.4 mph 21.9 mph N/A   Partly Cloudy
1:30 AM 64.4 °F 48.2 °F 56% 29.98 in 6.2 mi WSW 15.0 mph - N/A   Partly Cloudy
2:00 AM 65 °F 49 °F 45% 29.96 in 12 mi SW 12.7 mph - -   Partly Cloudy
2:00 AM 62.6 °F 48.2 °F 59% 29.98 in 6.2 mi SW 12.7 mph - N/A   Partly Cloudy
2:30 AM 62.6 °F 48.2 °F 59% 29.95 in 6.2 mi SW 13.8 mph - N/A   Partly Cloudy
3:00 AM 62.6 °F 48.2 °F 59% 29.95 in 6.2 mi SW 15.0 mph - N/A   Partly Cloudy
3:30 AM 62.6 °F 48.2 °F 59% 29.95 in 6.2 mi SW 17.3 mph - N/A   Partly Cloudy
4:00 AM 62.6 °F 48.2 °F 59% 29.95 in 6.2 mi SW 12.7 mph - N/A   Partly Cloudy
4:30 AM 62.6 °F 48.2 °F 59% 29.95 in 6.2 mi SW 9.2 mph - N/A   Partly Cloudy
5:00 AM 62.6 °F 48.2 °F 59% 29.92 in 6.2 mi SW 11.5 mph - N/A   Partly Cloudy
5:30 AM 62.6 °F 48.2 °F 59% 29.92 in 6.2 mi SW 15.0 mph - N/A   Partly Cloudy
6:00 AM 62.6 °F 48.2 °F 59% 29.89 in 6.2 mi SW 15.0 mph - N/A   Partly Cloudy
6:30 AM 62.6 °F 48.2 °F 59% 29.89 in 6.2 mi SW 18.4 mph 31.1 mph N/A   Partly Cloudy
7:00 AM 62.6 °F 46.4 °F 55% 29.89 in 6.2 mi SW 12.7 mph - N/A   Partly Cloudy
7:30 AM 62.6 °F 46.4 °F 55% 29.89 in 6.2 mi SSW 6.9 mph - N/A   Partly Cloudy
8:00 AM 63 °F 47 °F 45% 29.90 in 12 mi SSW 12.7 mph - -   Scattered Clouds
8:00 AM 60.8 °F 46.4 °F 59% 29.89 in 6.2 mi SW 13.8 mph - N/A   Partly Cloudy
8:30 AM 62.6 °F 46.4 °F 55% 29.89 in 6.2 mi SW 10.4 mph - N/A   Partly Cloudy
9:00 AM 62.6 °F 48.2 °F 59% 29.89 in 6.2 mi SW 6.9 mph - N/A   Partly Cloudy
9:30 AM 62.6 °F 48.2 °F 59% 29.89 in 6.2 mi SW 9.2 mph - N/A   Partly Cloudy
10:00 AM 62.6 °F 46.4 °F 55% 29.89 in 6.2 mi SW 18.4 mph - N/A   Partly Cloudy
10:30 AM 64.4 °F 48.2 °F 56% 29.89 in 6.2 mi SW 13.8 mph - N/A   Partly Cloudy
11:00 AM 64.4 °F 48.2 °F 56% 29.89 in 6.2 mi SW 16.1 mph - N/A   Partly Cloudy
11:30 AM 66.2 °F 46.4 °F 49% 29.86 in 6.2 mi SW 15.0 mph 26.5 mph N/A   Partly Cloudy
12:00 PM 68.0 °F 46.4 °F 46% 29.86 in 6.2 mi SW 15.0 mph 26.5 mph N/A   Partly Cloudy
12:30 PM 68.0 °F 44.6 °F 43% 29.86 in 6.2 mi SW 15.0 mph - N/A   Partly Cloudy
1:00 PM 68.0 °F 44.6 °F 43% 29.86 in 6.2 mi WSW 12.7 mph - N/A   Scattered Clouds
1:30 PM 69.8 °F 44.6 °F 40% 29.83 in 6.2 mi SW 11.5 mph - N/A   Scattered Clouds
2:00 PM 71 °F 47 °F 30% 29.82 in 19 mi West 3.5 mph - -   Scattered Clouds
2:00 PM 68.0 °F 46.4 °F 46% 29.83 in 6.2 mi West 1.2 mph - N/A   Scattered Clouds
2:30 PM 71.6 °F 46.4 °F 41% 29.80 in 6.2 mi WSW 15.0 mph - N/A   Scattered Clouds
3:00 PM 71.6 °F 44.6 °F 38% 29.80 in 6.2 mi WSW 13.8 mph - N/A   Scattered Clouds
3:30 PM 73.4 °F 41.0 °F 31% 29.77 in 6.2 mi SW 19.6 mph - N/A   Scattered Clouds
4:00 PM 73.4 °F 42.8 °F 33% 29.77 in 6.2 mi WSW 15.0 mph 27.6 mph N/A   Scattered Clouds
4:30 PM 73.4 °F 39.2 °F 29% 29.77 in 6.2 mi WSW 21.9 mph 33.4 mph N/A   Scattered Clouds
5:00 PM 73.4 °F 39.2 °F 29% 29.77 in 6.2 mi West 19.6 mph - N/A   Scattered Clouds
5:30 PM 71.6 °F 37.4 °F 29% 29.77 in 6.2 mi West 25.3 mph 38.0 mph N/A   Scattered Clouds
6:00 PM 69.8 °F 41.0 °F 35% 29.80 in 6.2 mi West 21.9 mph - N/A   Scattered Clouds
6:30 PM 62.6 °F 48.2 °F 59% 29.83 in 6.2 mi NW 15.0 mph - N/A   Scattered Clouds
7:00 PM 62.6 °F 50.0 °F 63% 29.83 in 6.2 mi NW 12.7 mph - N/A   Scattered Clouds
7:30 PM 64.4 °F 42.8 °F 45% 29.86 in 6.2 mi West 20.7 mph - N/A   Scattered Clouds
8:00 PM 67 °F 42 °F 29% 29.85 in 19 mi NW 13.8 mph - -   Scattered Clouds
8:00 PM 62.6 °F 48.2 °F 59% 29.86 in 6.2 mi NNW 12.7 mph 25.3 mph N/A   Scattered Clouds
8:30 PM 62.6 °F 46.4 °F 55% 29.86 in 6.2 mi NW 11.5 mph - N/A   Scattered Clouds
9:00 PM 60.8 °F 48.2 °F 63% 29.89 in 6.2 mi WNW 8.1 mph - N/A   Mostly Cloudy
9:30 PM 60.8 °F 46.4 °F 59% 29.89 in 6.2 mi WNW 4.6 mph - N/A   Scattered Clouds
10:00 PM 59.0 °F 42.8 °F 55% 29.89 in 6.2 mi West 6.9 mph - N/A   Partly Cloudy
10:30 PM 57.2 °F 42.8 °F 59% 29.92 in 6.2 mi NW 9.2 mph - N/A   Partly Cloudy
11:00 PM 57.2 °F 42.8 °F 59% 29.92 in - West 11.5 mph - N/A   Clear
11:30 PM 55.4 °F 42.8 °F 63% 29.92 in - West 9.2 mph - N/A   Clear